LiveATC.Net - Listen to live air traffic control over the Internet!


ICAO: SBMT  IATA:   Airport: Marte Airport
City: Sao Paulo
Country: Brazil   Continent: South America
SBMT METAR Weather: SBMT 270200Z 09005KT CAVOK 17/10 Q1027
SBMT Flight Activity (FlightAware)
SBMT Ground/Tower
Feed Status: DOWN
Last heard on: 2017-07-22 10:22:03 (4 days 16 hours 23 minutes ago)
SBMT Ground/Tower Audio Archives
FacilityFrequency
Marte Ground121.600
Marte Tower133.350


NOTICE

Unauthorized use prohibited. See LiveATC.net Terms of Service


Find LiveATC Audio Streams


Airport/ARTCC Code

Frequency Search
(e.g., 124.400, 128.75)
Site-wide search
 


Browse LiveATC Feeds
LiveATC Coverage Map
Top 50 LiveATC Feeds
Bad Weather Areas

LiveATC FAQ
Offer a LiveATC Feed
Contact LiveATC.net
Press Inquiries

LiveATC on iPhone
LiveATC on Android

Windows Phone
Windows 8/10

LiveATC Mobile
(Mobile browser)

ATC Audio Archives
Interesting Recordings

LiveATC Forums


Home Page
About LiveATC.net
Make a Donation
LiveATC Store

Terms of Use
Privacy Policy

Canadian Air Freqs

AIRMETs/SIGMETs

FAA Airport Status
Nat'l Airspace Status
Arrival Demand Charts


Server Software By:
Icecast.org
Liquidsoap